Terug naar catalogus

USA 17

ActiefMilitairLEO
NORAD 16625·PAYLOAD·🇺🇸 United States

Gelanceerd Feb 9, 1986 vanaf Vandenberg Space Force Base

Loading…

Volgende Passages (komende 24 uur)

TLE

VersSource: Space-Track

Epoch: Sep 14, 2026, 07:02 UTC

1 16625U 86014F   26257.29339848  .00002077  00000-0  21510-3 0  9995
2 16625  63.3014 216.2184 0778729 117.3273 250.9223 13.75152525355076

Volg USA 17 in realtime met AllMySat

Download on the App Store